User: anonymous   Login
Location: Unspecified
(0.0000°N, 0.0000°E)
Time: 00:27:39
(UTC+00:00)
Language:

STARONE C3 - Orbit

View from above orbital plane
View from above orbital plane
View from above satellite
View from above satellite

Ground track
Ground track

The orbit data is extracted from the following two-line orbital elements,

1 38991U 12062A   19081.85991059 -.00000273 +00000-0 +00000-0 0  9999
2 38991 000.0233 172.8495 0002980 217.6682 024.1162 01.00269911023265
Epoch (UTC): 22 March 2019 20:38:16
Eccentricity: 0.0002980
inclination: 0.0233°
perigee height: 35774 km
apogee height: 35799 km
right ascension of ascending node: 172.8495°
argument of perigee: 217.6682°
revolutions per day: 1.00269911
mean anomaly at epoch: 24.1162°
orbit number at epoch: 2326

The dashed part of the orbit path shows where the satellite is in the earth's shadow,  

DLR